Regional Weather Roundup
Issued by NWS Mobile, AL

Home | Current Version | Previous Version | Text Only | Print | Product List | Glossary On
Versions: 1 2 3 4 5 6 7 8 9 10 11 12 13 14 15 16 17 18 19 20 21 22 23 24 25 26 27 28 29 30 31 32 33 34 35 36 37 38 39 40 41 42 43 44 45 46 47 48 49 50
113
ASUS44 KMOB 271713
RWRMOB
REGIONAL WEATHER ROUNDUP
NATIONAL WEATHER SERVICE MOBILE AL
1200 PM CDT MON MAR 27 2017

NOTE: "FAIR" INDICATES FEW OR NO CLOUDS BELOW 12,000 FEET WITH NO
      SIGNIFICANT WEATHER AND/OR OBSTRUCTIONS TO VISIBILITY.

  * THESE STATIONS ARE PART OF THE UNIVERSITY OF SOUTH ALABAMA
    MESONET AND ARE NOT UNDER NWS OR FAA QUALITY CONTROL.

ALZ061>064-271800-
COASTAL ALABAMA

CITY           SKY/WX    TMP DP  RH WIND       PRES   REMARKS
MOBILE REG APT PTSUNNY   77  66  68 SE16      30.06S
BROOKLEY FIELD PTSUNNY   76  70  82 S14       30.08R
USA CAMPUS*      N/A     77  68  73 SE6       30.06S
DOG RIVER*       N/A     75  68  78 SE17      30.84S


CITY           SKY/WX    TMP DP  RH WIND       PRES   REMARKS
GULF SHORES    PTSUNNY   75  69  82 SE15G22   30.07F

$$

ALZ051>060-271800-
INTERIOR SOUTHWEST AND SOUTH CENTRAL ALABAMA

CITY           SKY/WX    TMP DP  RH WIND       PRES   REMARKS
GREENVILLE     MOSUNNY   77  60  55 S8        30.05F
EVERGREEN      PTSUNNY   78  61  55 S10G22    30.07S
ATMORE*          N/A     75  63  64 SE10      30.08S
ANDALUSIA/OPP  MOSUNNY   79  60  52 VRB5      30.07F
ANDALUSIA*     NOT AVBL
FLORALA APT    MOSUNNY   77  60  55 S7G17     30.09F
FLORALA*       NOT AVBL

$$

FLZ001>006-271800-
WESTERN FLORIDA PANHANDLE

CITY           SKY/WX    TMP DP  RH WIND       PRES   REMARKS
PENSACOLA      PTSUNNY   78  67  68 SE13      30.09S
NAS PENSACOLA  PTSUNNY   76  67  73 S12       30.08F
MILTON         CLOUDY    77  65  66 S10       30.08F
WHTNG S FIELD  PTSUNNY   77  66  68 S9        30.08F


CITY           SKY/WX    TMP DP  RH WIND       PRES   REMARKS
JAY*           NOT AVBL
CRESTVIEW      MOSUNNY   78  60  53 S9        30.09F
VALPARAISO     NOT AVBL
DESTIN         CLOUDY    74  70  87 SE10      30.10S

$$

MSZ076-079-271800-
INTERIOR SOUTHEAST MISSISSIPPI

CITY           SKY/WX    TMP DP  RH WIND       PRES   REMARKS
LEAKESVILLE*     N/A     79  64  61 S8        30.02F
AGRICOLA*        N/A     79  68  69 S3        30.03F

$$

MARINE OBSERVATIONS

STATION/POSITION TIME  TEMP    WIND        PRES    WAVE
                       AIR SEA DIR/SP/G            HT/PER
                 (UTC) (F)     (DEG/KT/KT) (MB)    (FT/S)
PASCAGOULA       1648   73     150/ 12/ 16 1017.7F
PETIT BOIS ISLND 1648   73     140/ 11/ 13 1018.6R
GRAND BAY        1530   72     140/ 13     1018.0F
KATRINA CUT      1630          140/ 17     1017.6S
CEDAR POINT      1630   72     140/ 16     1018.3S
E DAUPHIN ISLAND 1600   71     120/ 17/ 19 1017.8F
MIDDLE BAY LIGHT 1630   71     130/ 18     1017.6F
USCG MOBILE BAY  1648   73 71  180/ 12/ 17 1018.7S
STATE DOCKS      1636   73 67              1018.3R
MEAHER PARK      1630   72     200/  8     1017.3F
WEEKS BAY        1545   78                   N/A
FORT MORGAN      1648   72     130/ 14/ 17   N/A
12 S ORANGE BCH  1550   71 70  140/  8/  8 1018.7F   3/ 5
PENSACOLA BAY    1636   73 71  150/  4/  8 1019.1F
64 S DAUPHIN ISL 1630   73 73  140/ 14/ 16 1018.4S
67 S FORT MORGAN 1630   71     140/ 16     1018.3F

$$

SELECTED LOCATIONS ACROSS THE REGION

CITY           SKY/WX    TMP DP  RH WIND       PRES   REMARKS
NEW ORLEANS    MOSUNNY   80  68  66 S18G25    30.01S
GULFPORT       PTSUNNY   77  70  79 S15       30.04S
PASCAGOULA AP  PTSUNNY   78  67  68 SE14      30.05S
PASCAGOULA*    NOT AVBL
HATTIESBURG    MOSUNNY   80  62  54 S14       30.01F
LAUREL         MOSUNNY   81  61  50 S10G22    30.02F
MERIDIAN       PTSUNNY   80  65  59 S17       29.99F
JACKSON        MOSUNNY   81  64  56 S16       29.96F
MONTGOMERY     CLOUDY    78  60  53 S13       30.06F
TROY           PTSUNNY   76  59  55 S8        30.08F
ASHFORD*       NOT AVBL
DOTHAN         SUNNY     77  60  55 S9        30.13F
PANAMA CITY    SUNNY     77  59  53 SE14G21   30.10F

$$





USA.gov is the U.S. government's official web portal to all federal, state and local government web resources and services.